Location: Hains Lake
(37.8540°N, 99.8578°W)
Time: 04:18:35
(UTC+00:00)

Cosmos 1452 Rocket - Pass Details

Date: 11 December 2019
Orbit: 767 x 775 km, 74.1° (Epoch: 18 January)

Event Time Altitude Azimuth Distance (km) Brightness Sun altitude
Rises 12:29:51 0° 225° (SW) 3,233 6.5 -14.4°
Reaches altitude 10° 12:32:31 10° 237° (WSW) 2,312 5.6 -13.9°
Maximum altitude 12:37:02 29° 296° (WNW) 1,400 4.3 -13.0°
Drops below altitude 10° 12:41:36 10° 356° (N) 2,327 5.8 -12.2°
Sets 12:44:18 0° 8° (N) 3,259 6.6 -11.7°
